Regional Weather Roundup
Issued by NWS Newport/Morehead, NC

Home | Current Version | Previous Version | Text Only | Print | Product List | Glossary On
Versions: 1 2 3 4 5 6 7 8 9 10 11 12 13 14 15 16 17 18 19 20 21 22 23 24 25 26 27 28 29 30 31 32 33 34 35 36 37 38 39 40 41 42 43 44 45 46 47 48 49 50
000
ASUS42 KMHX 021825
RWRMHX
WEATHER ROUNDUP FOR EASTERN NORTH CAROLINA
NATIONAL WEATHER SERVICE NEWPORT/MOREHEAD CITY NC
100 PM EST FRI DEC 02 2016

NOTE: "FAIR" INDICATES FEW OR NO CLOUDS BELOW 12,000 FEET
WITH NO SIGNIFICANT WEATHER AND/OR OBSTRUCTIONS TO VISIBILITY

NCZ015>017-031-032-045>047-102-103-021900-
NORTH COAST

CITY           SKY/WX    TMP DP  RH WIND       PRES   REMARKS
EDENTON        SUNNY     55  32  41 W8        30.08F
ELIZABETH CITY SUNNY     54  32  43 W9        30.07F
KITTY HAWK     CLEAR     52  38  57 CALM      30.05F
MANTEO         SUNNY     52  32  47 NW6       30.07F

$$

NCZ045>047-081-094-103-104-021900-
CENTRAL COAST

CITY           SKY/WX    TMP DP  RH WIND       PRES   REMARKS
FRISCO         SUNNY     56  41  57 VRB5      30.07F

$$

NCZ095-097-098-100-101-021900-
SOUTHERN COAST

CITY           SKY/WX    TMP DP  RH WIND       PRES   REMARKS
BEAUFORT       SUNNY     58  40  51 W6        30.08F
CEDAR ISLAND   NOT AVBL
JACKSONVILLE   SUNNY     57  32  38 NW10      30.09F
PINEY ISLAND   CLEAR    N/A N/A N/A N9        30.08F
WILMINGTON     SUNNY     58  33  39 N13       30.10F


$$

NCZ011>013-027>030-043-044-078>080-089-090>093-098-021900-
COASTAL PLAIN

CITY           SKY/WX    TMP DP  RH WIND       PRES   REMARKS
AHOSKIE        SUNNY     53  31  42 CALM      30.08F
CLINTON        SUNNY     57  33  41 NW7       30.11F
ELIZABETHTOWN  SUNNY     56  32  38 W9        30.11F
GOLDSBORO      SUNNY     56  29  34 NW9       30.08F
GREENVILLE     SUNNY     55  32  41 CALM      30.11F HAZE
HAVELOCK       SUNNY     57  36  45 N10       30.09F
KENANSVILLE    SUNNY     57  32  38 NW9G17    30.11F
KINSTON        SUNNY     55  30  38 W6        30.10F
NEW BERN       SUNNY     56  33  42 NW7       30.10F
RICHLANDS      SUNNY     57  33  40 VRB5      30.10F
ROCKY MOUNT    SUNNY     55  31  39 NW8G16    30.10F
WASHINGTON     SUNNY     55  31  39 W5        30.09F
WHITEVILLE     SUNNY     57  32  38 NW3       30.11F

$$

AMZ130-135-150-152-154-156-158-170-250-252-270-ANZ085-086-088-633-658-670-021900-
MARINE OBSERVATIONS

STATION/POSITION TIME  TEMP    WIND        PRES    WAVE   SWELL
                       AIR SEA DIR/SP/G            HT/PER HT/PER
                 (UTC) (F)     (DEG/KT/KT) (MB)    (FT/S) (FT/S)
CHESAPEAKE LIGHT NOT AVBL
64 E VA BEACH    1750   51 60  310/ 12/ 16 1017.3    4/ 5   2/ 6
DUCK             1800   51 57  280/  3/  6 1017.5
2 E DUCK         NOT AVBL
OREGON INLET     1800   52 58  300/  8/ 11 1017.9
13E OREGON INLT  1800      61                N/A     4/ 6   3/ 6
HATTERAS CG      1800   52 62  320/ 11/ 12 1017.9
DIAMOND BUOY     1750   56 77  350/ 12/ 16 1018.0    4/ 7   3/ 7
CAPE LOOKOUT     1800   55     320/  6/  8 1018.3
BEAUFORT LAB     1800   54 58   10/  6/  7 1017.5
30 SE NEW RVR IN 1808   55 72  350/  8/ 14 1019.0
30 SE NEW RVR IN NOT AVBL
27 SE WRIGHTSVLE 1808   55 68  350/  8/ 14 1018.9
5 SE WRIGHTSVLE  NOT AVBL
225 S CAPE HAT   1750   70 74  310/ 12/ 16 1016.5    5/ 6   3/ 8
41 SE CHARLESTON 1750   58 74  360/ 14/ 17 1019.5    3/ 9   2/ 9

$$




USA.gov is the U.S. government's official web portal to all federal, state and local government web resources and services.